Tracking 18874 objects as of 17-Dec-2017
HD Live streaming from Space Station
objects crossing your sky now

TECHEDSAT 6

Track TECHEDSAT 6 now!
10-day predictions


NORAD ID: 43026
Int'l Code: 1998-067NK
Perigee: 399.0 km
Apogee: 403.4 km
Inclination: 51.6 °
Period: 92.4 minutes
Semi major axis: 6772 km
RCS: Unknown
Launch date: November 20, 1998
Source: United States (US)
Launch site: TYURATAM MISSILE AND SPACE COMPLEX (TTMTR)
aabbcc
Your satellite tracking list
Your tracking list is empty




NASA's NSSDC Master Catalog

Two Line Element Set (TLE):
1 43026U 98067NK  17350.86956232  .00039164  00000-0  52066-3 0  9997
2 43026  51.6381 207.1819 0003224 188.9582 171.1354 15.57788580  3987
Source of the keplerian elements: AFSPC